DAL3750 KBOI-KSEA

Flight info

Callsign DAL3750
Flight time 1h 9m
Altitude 36000
Route OLAAH PREIS OKINY PDT CHINS5
Aircraft A321/M-SDE3FGHIRWY/LB1

Departure

Time 2026-05-06 20:53
Airport Boise Air Terminal/Gowen Field (KBOI)

Arrival

Time 2026-05-06 22:02
Airport Seattle–Tacoma International Airport (KSEA)
Time Latitude Longitude Altitude Speed Heading
2026-05-06 20:25 43.56786 -116.21963 2882 ft 0 kts 219°
2026-05-06 20:44 43.56801 -116.21947 2881 ft 4 kts 198°
2026-05-06 20:44 43.56819 -116.21947 2881 ft 4 kts 117°
2026-05-06 20:45 43.56822 -116.21950 2881 ft 4 kts 98°
2026-05-06 20:45 43.56818 -116.21913 2881 ft 4 kts 97°
2026-05-06 20:45 43.56815 -116.21877 2881 ft 4 kts 97°
2026-05-06 20:45 43.56813 -116.21853 2881 ft 0 kts 97°
2026-05-06 20:47 43.56811 -116.21838 2881 ft 8 kts 97°
2026-05-06 20:47 43.56753 -116.21760 2881 ft 15 kts 173°
2026-05-06 20:47 43.56656 -116.21746 2881 ft 14 kts 174°
2026-05-06 20:48 43.56579 -116.21738 2881 ft 9 kts 176°
2026-05-06 20:48 43.56522 -116.21732 2881 ft 8 kts 175°
2026-05-06 20:48 43.56491 -116.21763 2881 ft 8 kts 264°
2026-05-06 20:48 43.56533 -116.21907 2881 ft 21 kts 296°
2026-05-06 20:49 43.56596 -116.22088 2881 ft 20 kts 296°
2026-05-06 20:49 43.56654 -116.22264 2881 ft 20 kts 295°
2026-05-06 20:49 43.56712 -116.22432 2881 ft 19 kts 295°
2026-05-06 20:49 43.56768 -116.22596 2881 ft 20 kts 294°
2026-05-06 20:50 43.56845 -116.22824 2881 ft 30 kts 295°
2026-05-06 20:50 43.56933 -116.23083 2881 ft 29 kts 295°
2026-05-06 20:50 43.57020 -116.23333 2881 ft 28 kts 295°
2026-05-06 20:50 43.57101 -116.23574 2882 ft 27 kts 294°
2026-05-06 20:51 43.57101 -116.23822 2882 ft 26 kts 263°
2026-05-06 20:51 43.57064 -116.24060 2882 ft 25 kts 256°
2026-05-06 20:51 43.57003 -116.24195 2882 ft 8 kts 175°
2026-05-06 20:51 43.56967 -116.24155 2883 ft 0 kts 115°
2026-05-06 20:52 43.56965 -116.24148 2883 ft 5 kts 115°
2026-05-06 20:52 43.56847 -116.23805 2884 ft 76 kts 115°
2026-05-06 20:52 43.56527 -116.22869 2884 ft 136 kts 115°
2026-05-06 20:52 43.56048 -116.21489 2912 ft 178 kts 117°
2026-05-06 20:53 43.55529 -116.19954 3577 ft 175 kts 112°
2026-05-06 20:53 43.55114 -116.18378 4268 ft 174 kts 110°
2026-05-06 20:53 43.54720 -116.16778 4798 ft 182 kts 110°
2026-05-06 20:53 43.54281 -116.15038 4984 ft 203 kts 111°
2026-05-06 20:54 43.53435 -116.13400 5102 ft 222 kts 143°
2026-05-06 20:54 43.51955 -116.12623 5238 ft 240 kts 176°
2026-05-06 20:54 43.50258 -116.13012 5437 ft 260 kts 200°
2026-05-06 20:54 43.48525 -116.13923 6051 ft 271 kts 209°
2026-05-06 20:55 43.47103 -116.15593 6772 ft 272 kts 238°
2026-05-06 20:55 43.46407 -116.17954 7482 ft 272 kts 265°
2026-05-06 20:55 43.46585 -116.20552 8303 ft 271 kts 288°
2026-05-06 20:55 43.47216 -116.22967 9137 ft 272 kts 292°
2026-05-06 20:56 43.47933 -116.25380 9981 ft 273 kts 300°
2026-05-06 20:56 43.49129 -116.27438 10466 ft 287 kts 321°
2026-05-06 20:56 43.50923 -116.28869 10676 ft 310 kts 332°
2026-05-06 20:56 43.52901 -116.30234 11131 ft 323 kts 333°
2026-05-06 20:57 43.54927 -116.31613 11855 ft 326 kts 333°
2026-05-06 20:57 43.56972 -116.33004 12613 ft 329 kts 333°
2026-05-06 20:57 43.59036 -116.34413 13366 ft 332 kts 333°
2026-05-06 20:57 43.61113 -116.35842 14080 ft 335 kts 333°
2026-05-06 20:58 43.62528 -116.36820 14539 ft 337 kts 333°
2026-05-06 20:58 43.64630 -116.38278 15227 ft 339 kts 333°
2026-05-06 20:58 43.66743 -116.39752 15921 ft 341 kts 333°
2026-05-06 20:58 43.68865 -116.41237 16608 ft 343 kts 333°
2026-05-06 20:59 43.71003 -116.42732 17286 ft 345 kts 333°
2026-05-06 20:59 43.73128 -116.44217 17940 ft 348 kts 333°
2026-05-06 20:59 43.75292 -116.45735 18562 ft 350 kts 333°
2026-05-06 20:59 43.77474 -116.47263 19123 ft 353 kts 333°
2026-05-06 21:00 43.79673 -116.48801 19656 ft 355 kts 333°
2026-05-06 21:00 43.81893 -116.50352 20166 ft 358 kts 333°
2026-05-06 21:00 43.84125 -116.51915 20688 ft 361 kts 333°
2026-05-06 21:00 43.86376 -116.53494 21201 ft 364 kts 333°
2026-05-06 21:01 43.88646 -116.55088 21726 ft 367 kts 333°
2026-05-06 21:01 43.90929 -116.56697 22226 ft 370 kts 333°
2026-05-06 21:01 43.93234 -116.58323 22723 ft 373 kts 333°
2026-05-06 21:01 43.95554 -116.59955 23212 ft 376 kts 333°
2026-05-06 21:02 43.97896 -116.61602 23694 ft 379 kts 333°
2026-05-06 21:02 44.00255 -116.63264 24076 ft 382 kts 333°
2026-05-06 21:02 44.02630 -116.64938 24495 ft 384 kts 333°
2026-05-06 21:02 44.05018 -116.66625 24911 ft 386 kts 333°
2026-05-06 21:03 44.07422 -116.68324 25325 ft 388 kts 333°
2026-05-06 21:03 44.09837 -116.70035 25743 ft 390 kts 333°
2026-05-06 21:03 44.12190 -116.71928 26131 ft 393 kts 326°
2026-05-06 21:03 44.14465 -116.74056 26521 ft 395 kts 326°
2026-05-06 21:04 44.16746 -116.76209 26913 ft 397 kts 324°
2026-05-06 21:04 44.18874 -116.78599 27303 ft 399 kts 321°
2026-05-06 21:04 44.21017 -116.81065 27699 ft 401 kts 321°
2026-05-06 21:04 44.23175 -116.83540 28091 ft 403 kts 321°
2026-05-06 21:05 44.25343 -116.86025 28467 ft 405 kts 321°
2026-05-06 21:05 44.27521 -116.88531 28816 ft 407 kts 321°
2026-05-06 21:05 44.29704 -116.91050 29173 ft 408 kts 321°
2026-05-06 21:05 44.31900 -116.93588 29529 ft 410 kts 321°
2026-05-06 21:06 44.34100 -116.96132 29891 ft 412 kts 321°
2026-05-06 21:06 44.36314 -116.98693 30198 ft 414 kts 321°
2026-05-06 21:06 44.38536 -117.01268 30491 ft 415 kts 320°
2026-05-06 21:06 44.40765 -117.03851 30802 ft 417 kts 320°
2026-05-06 21:07 44.42996 -117.06436 31202 ft 415 kts 320°
2026-05-06 21:07 44.45213 -117.09010 31643 ft 414 kts 320°
2026-05-06 21:07 44.47423 -117.11585 32064 ft 412 kts 320°
2026-05-06 21:07 44.49623 -117.14151 32475 ft 411 kts 320°
2026-05-06 21:08 44.51820 -117.16711 32925 ft 410 kts 320°
2026-05-06 21:08 44.54008 -117.19261 33384 ft 408 kts 320°
2026-05-06 21:08 44.56184 -117.21800 33790 ft 406 kts 320°
2026-05-06 21:08 44.58354 -117.24332 34160 ft 405 kts 320°
2026-05-06 21:09 44.60516 -117.26863 34518 ft 404 kts 320°
2026-05-06 21:09 44.62668 -117.29386 34908 ft 403 kts 320°
2026-05-06 21:09 44.64817 -117.31909 35247 ft 402 kts 320°
2026-05-06 21:09 44.66937 -117.34398 35551 ft 402 kts 320°
2026-05-06 21:10 44.69081 -117.36917 35870 ft 401 kts 320°
2026-05-06 21:10 44.71227 -117.39437 36061 ft 401 kts 320°
2026-05-06 21:10 44.73357 -117.41939 36097 ft 397 kts 319°
2026-05-06 21:11 44.77577 -117.46915 36097 ft 395 kts 319°
2026-05-06 21:11 44.81780 -117.51882 36096 ft 394 kts 320°
2026-05-06 21:12 44.85976 -117.56846 36098 ft 394 kts 320°
2026-05-06 21:12 44.90163 -117.61805 36105 ft 393 kts 320°
2026-05-06 21:13 44.94347 -117.66775 36101 ft 393 kts 319°
2026-05-06 21:13 44.98521 -117.71750 36117 ft 392 kts 319°
2026-05-06 21:14 45.02690 -117.76724 36072 ft 392 kts 320°
2026-05-06 21:14 45.06856 -117.81699 36068 ft 392 kts 319°
2026-05-06 21:15 45.11009 -117.86684 36068 ft 391 kts 320°
2026-05-06 21:15 45.15127 -117.91631 36061 ft 390 kts 318°
2026-05-06 21:16 45.18664 -117.97455 36060 ft 391 kts 308°
2026-05-06 21:16 45.21961 -118.03587 36060 ft 391 kts 309°
2026-05-06 21:17 45.25265 -118.09704 36037 ft 391 kts 309°
2026-05-06 21:17 45.28570 -118.15832 36047 ft 391 kts 309°
2026-05-06 21:18 45.31865 -118.21976 36051 ft 391 kts 308°
2026-05-06 21:18 45.35153 -118.28128 36056 ft 391 kts 308°
2026-05-06 21:19 45.38429 -118.34287 36053 ft 390 kts 308°
2026-05-06 21:19 45.41708 -118.40448 36056 ft 390 kts 308°
2026-05-06 21:20 45.44981 -118.46607 36050 ft 389 kts 308°
2026-05-06 21:20 45.48247 -118.52769 36046 ft 390 kts 308°
2026-05-06 21:21 45.51487 -118.58889 36036 ft 389 kts 308°
2026-05-06 21:21 45.54740 -118.65052 36017 ft 388 kts 308°
2026-05-06 21:22 45.57988 -118.71223 36010 ft 389 kts 308°
2026-05-06 21:22 45.61229 -118.77406 36011 ft 389 kts 308°
2026-05-06 21:23 45.64472 -118.83592 36009 ft 389 kts 308°
2026-05-06 21:23 45.67712 -118.89784 36010 ft 389 kts 308°
2026-05-06 21:24 45.70981 -118.95954 35974 ft 389 kts 309°
2026-05-06 21:24 45.74448 -119.01841 35972 ft 389 kts 311°
2026-05-06 21:25 45.78010 -119.07669 35990 ft 389 kts 311°
2026-05-06 21:25 45.81535 -119.13552 35996 ft 389 kts 310°
2026-05-06 21:26 45.85027 -119.19482 35980 ft 389 kts 310°
2026-05-06 21:26 45.88514 -119.25428 35986 ft 389 kts 310°
2026-05-06 21:27 45.92000 -119.31373 35994 ft 389 kts 310°
2026-05-06 21:27 45.95485 -119.37317 35988 ft 389 kts 310°
2026-05-06 21:28 45.98968 -119.43273 35980 ft 389 kts 310°
2026-05-06 21:28 46.02444 -119.49228 35967 ft 389 kts 310°
2026-05-06 21:29 46.05917 -119.55191 35951 ft 388 kts 310°
2026-05-06 21:29 46.09382 -119.61147 35945 ft 388 kts 310°
2026-05-06 21:30 46.12847 -119.67110 35942 ft 388 kts 310°
2026-05-06 21:30 46.16305 -119.73083 35934 ft 388 kts 310°
2026-05-06 21:31 46.19754 -119.79069 35935 ft 388 kts 309°
2026-05-06 21:31 46.23181 -119.85017 35920 ft 388 kts 309°
2026-05-06 21:32 46.26631 -119.91017 35913 ft 388 kts 309°
2026-05-06 21:32 46.31807 -120.00038 35924 ft 388 kts 309°
2026-05-06 21:33 46.35249 -120.06055 35913 ft 388 kts 309°
2026-05-06 21:33 46.38692 -120.12086 35914 ft 388 kts 309°
2026-05-06 21:34 46.42125 -120.18125 35930 ft 388 kts 309°
2026-05-06 21:34 46.45557 -120.24176 35940 ft 388 kts 309°
2026-05-06 21:35 46.48986 -120.30233 35946 ft 388 kts 309°
2026-05-06 21:35 46.52405 -120.36276 35955 ft 387 kts 309°
2026-05-06 21:36 46.55817 -120.42326 35962 ft 387 kts 309°
2026-05-06 21:36 46.59093 -120.48461 35962 ft 387 kts 306°
2026-05-06 21:37 46.62142 -120.54913 35947 ft 387 kts 304°
2026-05-06 21:37 46.65155 -120.61417 35980 ft 387 kts 305°
2026-05-06 21:38 46.68201 -120.67897 35975 ft 388 kts 305°
2026-05-06 21:38 46.71256 -120.74327 34980 ft 383 kts 305°
2026-05-06 21:39 46.72793 -120.77551 33248 ft 392 kts 304°
2026-05-06 21:39 46.74363 -120.80848 31506 ft 403 kts 304°
2026-05-06 21:39 46.75977 -120.84248 30673 ft 407 kts 304°
2026-05-06 21:39 46.77563 -120.87595 30428 ft 396 kts 304°
2026-05-06 21:40 46.79116 -120.90890 29902 ft 392 kts 303°
2026-05-06 21:40 46.80653 -120.94162 29332 ft 388 kts 304°
2026-05-06 21:40 46.82170 -120.97389 28762 ft 382 kts 303°
2026-05-06 21:40 46.83668 -121.00568 28221 ft 378 kts 304°
2026-05-06 21:41 46.85149 -121.03704 27676 ft 373 kts 303°
2026-05-06 21:41 46.86613 -121.06811 27143 ft 369 kts 303°
2026-05-06 21:41 46.88058 -121.09890 26615 ft 365 kts 303°
2026-05-06 21:41 46.89486 -121.12940 26098 ft 362 kts 303°
2026-05-06 21:42 46.90900 -121.15969 25597 ft 358 kts 303°
2026-05-06 21:42 46.92298 -121.18966 25123 ft 356 kts 302°
2026-05-06 21:42 46.93686 -121.21943 24647 ft 352 kts 302°
2026-05-06 21:42 46.95041 -121.24849 24191 ft 349 kts 302°
2026-05-06 21:43 46.96408 -121.27781 23731 ft 347 kts 302°
2026-05-06 21:43 46.97759 -121.30683 23230 ft 343 kts 302°
2026-05-06 21:43 46.99099 -121.33563 22795 ft 341 kts 302°
2026-05-06 21:43 47.00420 -121.36414 22367 ft 336 kts 302°
2026-05-06 21:44 47.01722 -121.39230 21957 ft 332 kts 302°
2026-05-06 21:44 47.03008 -121.42012 21521 ft 328 kts 302°
2026-05-06 21:44 47.04281 -121.44770 21111 ft 324 kts 302°
2026-05-06 21:44 47.05542 -121.47498 20678 ft 322 kts 302°
2026-05-06 21:45 47.06797 -121.50210 20236 ft 320 kts 302°
2026-05-06 21:45 47.08042 -121.52913 19786 ft 319 kts 302°
2026-05-06 21:45 47.09278 -121.55601 19344 ft 317 kts 302°
2026-05-06 21:45 47.10512 -121.58282 18919 ft 317 kts 302°
2026-05-06 21:46 47.11744 -121.60961 18469 ft 316 kts 301°
2026-05-06 21:46 47.12973 -121.63634 17982 ft 315 kts 301°
2026-05-06 21:46 47.14193 -121.66285 17539 ft 312 kts 301°
2026-05-06 21:46 47.15405 -121.68910 17122 ft 309 kts 301°
2026-05-06 21:47 47.16200 -121.70637 16843 ft 307 kts 301°
2026-05-06 21:47 47.17392 -121.73233 16419 ft 305 kts 301°
2026-05-06 21:47 47.18571 -121.75816 16001 ft 303 kts 301°
2026-05-06 21:47 47.20123 -121.79220 15454 ft 302 kts 301°
2026-05-06 21:48 47.21291 -121.81777 15083 ft 300 kts 301°
2026-05-06 21:48 47.22085 -121.83521 14928 ft 308 kts 301°
2026-05-06 21:48 47.23678 -121.87026 14568 ft 313 kts 301°
2026-05-06 21:48 47.24497 -121.88825 14389 ft 312 kts 296°
2026-05-06 21:49 47.25710 -121.91521 14043 ft 319 kts 303°
2026-05-06 21:49 47.26944 -121.94196 13810 ft 313 kts 303°
2026-05-06 21:49 47.28150 -121.96802 13548 ft 311 kts 302°
2026-05-06 21:49 47.29360 -121.99439 13278 ft 310 kts 302°
2026-05-06 21:50 47.30552 -122.02070 13011 ft 309 kts 302°
2026-05-06 21:50 47.31739 -122.04703 12740 ft 307 kts 302°
2026-05-06 21:50 47.32911 -122.07312 12510 ft 301 kts 302°
2026-05-06 21:50 47.34024 -122.09787 12212 ft 280 kts 301°
2026-05-06 21:51 47.35082 -122.12143 11730 ft 271 kts 301°
2026-05-06 21:51 47.36130 -122.14479 11506 ft 274 kts 301°
2026-05-06 21:51 47.37204 -122.16794 11269 ft 273 kts 303°
2026-05-06 21:51 47.38312 -122.19083 10838 ft 276 kts 304°
2026-05-06 21:52 47.39441 -122.21385 10428 ft 276 kts 304°
2026-05-06 21:52 47.40558 -122.23656 9960 ft 271 kts 304°
2026-05-06 21:52 47.41660 -122.25901 9125 ft 269 kts 304°
2026-05-06 21:52 47.42736 -122.28098 8508 ft 259 kts 304°
2026-05-06 21:53 47.43769 -122.30219 7963 ft 249 kts 304°
2026-05-06 21:53 47.44761 -122.32265 7443 ft 241 kts 304°
2026-05-06 21:53 47.45717 -122.34246 6938 ft 233 kts 303°
2026-05-06 21:53 47.46639 -122.36160 6471 ft 223 kts 303°
2026-05-06 21:54 47.47505 -122.37962 6238 ft 205 kts 303°
2026-05-06 21:54 47.48320 -122.39658 6198 ft 200 kts 303°
2026-05-06 21:54 47.49123 -122.41328 6161 ft 196 kts 303°
2026-05-06 21:54 47.49881 -122.42895 6099 ft 181 kts 303°
2026-05-06 21:55 47.50728 -122.44233 6035 ft 178 kts 320°
2026-05-06 21:55 47.51807 -122.45141 5993 ft 181 kts 336°
2026-05-06 21:55 47.53042 -122.45532 5691 ft 183 kts 354°
2026-05-06 21:55 47.54295 -122.45520 5437 ft 182 kts 357°
2026-05-06 21:56 47.55557 -122.45513 5195 ft 181 kts 358°
2026-05-06 21:56 47.56821 -122.45476 4957 ft 182 kts
2026-05-06 21:56 47.58055 -122.45025 4708 ft 185 kts 19°
2026-05-06 21:56 47.59173 -122.44069 4455 ft 188 kts 37°
2026-05-06 21:57 47.60082 -122.42670 4230 ft 190 kts 54°
2026-05-06 21:57 47.60697 -122.40940 3989 ft 189 kts 72°
2026-05-06 21:57 47.60961 -122.39057 3750 ft 186 kts 89°
2026-05-06 21:57 47.60865 -122.37170 3518 ft 182 kts 105°
2026-05-06 21:58 47.60439 -122.35420 3282 ft 179 kts 122°
2026-05-06 21:58 47.59737 -122.33932 3045 ft 174 kts 137°
2026-05-06 21:58 47.58822 -122.32786 2834 ft 171 kts 151°
2026-05-06 21:58 47.57755 -122.32037 2606 ft 168 kts 165°
2026-05-06 21:59 47.56616 -122.31712 2400 ft 166 kts 179°
2026-05-06 21:59 47.55469 -122.31710 2191 ft 166 kts 182°
2026-05-06 21:59 47.54358 -122.31719 2003 ft 149 kts 182°
2026-05-06 21:59 47.53361 -122.31723 1784 ft 138 kts 183°
2026-05-06 22:00 47.52420 -122.31728 1600 ft 133 kts 183°
2026-05-06 22:00 47.51498 -122.31735 1421 ft 134 kts 183°
2026-05-06 22:00 47.50570 -122.31740 1245 ft 133 kts 185°
2026-05-06 22:00 47.49633 -122.31743 1088 ft 134 kts 183°
2026-05-06 22:01 47.48705 -122.31753 895 ft 133 kts 184°
2026-05-06 22:01 47.47784 -122.31775 744 ft 133 kts 183°
2026-05-06 22:01 47.46872 -122.31785 561 ft 130 kts 182°
2026-05-06 22:01 47.45977 -122.31790 404 ft 127 kts 182°
2026-05-06 22:02 47.45193 -122.31800 393 ft 89 kts 181°
2026-05-06 22:02 47.44757 -122.31793 394 ft 47 kts 175°
2026-05-06 22:02 47.44490 -122.31660 392 ft 31 kts 149°
2026-05-06 22:02 47.44330 -122.31525 392 ft 26 kts 148°
2026-05-06 22:03 47.44282 -122.31369 393 ft 15 kts 37°
2026-05-06 22:03 47.44391 -122.31363 392 ft 19 kts 359°
2026-05-06 22:03 47.44564 -122.31358 389 ft 30 kts 359°
2026-05-06 22:03 47.44645 -122.31291 394 ft 12 kts 85°
2026-05-06 22:04 47.44642 -122.31171 392 ft 11 kts 102°
2026-05-06 22:04 47.44585 -122.31049 392 ft 18 kts 150°
2026-05-06 22:04 47.44476 -122.30958 394 ft 18 kts 150°
2026-05-06 22:04 47.44370 -122.30860 394 ft 18 kts 135°
2026-05-06 22:05 47.44348 -122.30706 394 ft 0 kts 89°
2026-05-06 22:06 47.44348 -122.30701 394 ft 3 kts 89°
2026-05-06 22:06 47.44293 -122.30634 391 ft 17 kts 179°
2026-05-06 22:07 47.44174 -122.30636 392 ft 16 kts 180°
2026-05-06 22:07 47.44107 -122.30635 391 ft 5 kts 180°
2026-05-06 22:07 47.44073 -122.30635 392 ft 5 kts 179°
2026-05-06 22:07 47.44038 -122.30627 393 ft 5 kts 161°
2026-05-06 22:08 47.44036 -122.30553 394 ft 13 kts 42°
2026-05-06 22:08 47.44122 -122.30544 394 ft 12 kts 359°
2026-05-06 22:08 47.44185 -122.30507 394 ft 9 kts 75°
2026-05-06 22:08 47.44184 -122.30467 394 ft 0 kts 91°